sat.trackr.live / text

‹ back to catalog

COSMOS 2575

NORAD 58929 · 2024-026A

PAYLOAD ACTIVE UNKNOWN

§ Identity

Operator
Country
CIS
Launch date
2024-02-09
Launch site
PLMSC
Launch vehicle
Mass (kg)
RCS (m²)

External: N2YO · Heavens-Above · Gunter

§ Orbital elements

Epoch: 2026-09-18T19:37:28.886880Z

Period
91.55 min
Inclination
96.5799°
Eccentricity
0.0019327
Mean motion
15.72921719 rev/d
Perigee alt
337.5 km
Apogee alt
363.6 km
Semi-major
6,728.7 km
B*
1.3901e-4
RAAN
141.3743°
Arg perigee
15.6634°
Mean anomaly
344.5226°
Rev number
15,037

§ Raw data

COSMOS 25751 58929U 24026A   26261.81769545  .00018958  00000+0  13901-3 0  99962 58929  96.5799 141.3743 0019327  15.6634 344.5226 15.72921719150376

JSON: /api/v1/satellites/58929 · /tle

For live sub-satellite position, see the globe view (requires WebGL).

§ Visibility from observer

Set your observer location to see the next 7 days of passes ≥ 10°. The values pass through the URL so the page stays shareable.

No JS? Fill the form by hand. The geolocation button needs JavaScript.